AFR668 LFPG-HDAM

Flight info

Callsign AFR668
Flight time N/A
Altitude 35000
Route LANVI DCT DEVDI DCT RIPUS DCT RESIA DCT ROTAR DCT SPL DCT VAKSU/N0473F370 DCT RODON DCT DIMIS DCT SALUN N705 BOPIX N710 TAKRI P751 LXR M999 JDW G650 RASKA/N0480F380 G650 ULONI/N0478F390 UV790 SB UR775 MANDA MANDA1P
Aircraft B77W/H-SDE1E2E3FGHIJ2J3J4J5M1RWXYZ/LB1D1

Departure

Time N/A
Airport Charles de Gaulle International Airport (LFPG)

Arrival

Time 2026-04-11 15:01
Airport Djibouti-Ambouli Airport (HDAM)
Time Latitude Longitude Altitude Speed Heading
2026-04-11 13:35 20.12394 39.08313 36935 ft 481 kts 192°
2026-04-11 13:36 20.05694 39.08143 36933 ft 481 kts 192°
2026-04-11 13:36 20.00114 39.08002 36937 ft 482 kts 192°
2026-04-11 13:37 19.93402 39.07832 36932 ft 482 kts 192°
2026-04-11 13:37 19.86704 39.07663 36923 ft 481 kts 191°
2026-04-11 13:38 19.80015 39.07495 36922 ft 480 kts 191°
2026-04-11 13:38 19.73331 39.07326 36929 ft 480 kts 191°
2026-04-11 13:39 19.66692 39.07159 36931 ft 480 kts 191°
2026-04-11 13:39 19.60011 39.06990 36931 ft 480 kts 191°
2026-04-11 13:40 19.53337 39.06822 36934 ft 480 kts 191°
2026-04-11 13:40 19.46654 39.06654 36932 ft 480 kts 191°
2026-04-11 13:41 19.39965 39.06486 36931 ft 480 kts 191°
2026-04-11 13:41 19.33339 39.06321 36922 ft 479 kts 191°
2026-04-11 13:42 19.26671 39.06153 36929 ft 478 kts 191°
2026-04-11 13:42 19.20017 39.05986 36933 ft 478 kts 191°
2026-04-11 13:43 19.13366 39.05819 36932 ft 478 kts 191°
2026-04-11 13:43 19.06728 39.05538 37039 ft 478 kts 192°
2026-04-11 13:43 19.03415 39.05341 37409 ft 476 kts 192°
2026-04-11 13:44 19.00124 39.05141 37882 ft 472 kts 192°
2026-04-11 13:44 18.93532 39.04747 37942 ft 473 kts 192°
2026-04-11 13:45 18.86997 39.04380 37924 ft 467 kts 192°
2026-04-11 13:45 18.80568 39.04025 37926 ft 464 kts 192°
2026-04-11 13:46 18.74120 39.03667 37936 ft 463 kts 192°
2026-04-11 13:46 18.67690 39.03309 37934 ft 463 kts 192°
2026-04-11 13:47 18.61238 39.02951 37936 ft 464 kts 192°
2026-04-11 13:47 18.54777 39.02593 37930 ft 465 kts 191°
2026-04-11 13:48 18.48302 39.02236 37937 ft 467 kts 191°
2026-04-11 13:48 18.41802 39.01877 37935 ft 468 kts 191°
2026-04-11 13:49 18.35325 39.01520 37939 ft 468 kts 191°
2026-04-11 13:49 18.28810 39.01161 37928 ft 468 kts 191°
2026-04-11 13:50 18.22288 39.00802 37947 ft 468 kts 191°
2026-04-11 13:50 18.15770 39.00447 37929 ft 469 kts 191°
2026-04-11 13:51 18.09275 39.00191 37937 ft 470 kts 189°
2026-04-11 13:51 18.02732 38.99975 37934 ft 469 kts 189°
2026-04-11 13:52 17.96196 38.99748 37938 ft 469 kts 189°
2026-04-11 13:52 17.89667 38.99511 37937 ft 469 kts 189°
2026-04-11 13:53 17.83177 38.99273 37932 ft 469 kts 189°
2026-04-11 13:53 17.76644 38.99034 37928 ft 469 kts 189°
2026-04-11 13:54 17.70114 38.98796 37939 ft 469 kts 189°
2026-04-11 13:54 17.63574 38.98558 37940 ft 470 kts 189°
2026-04-11 13:55 17.57026 38.98320 37937 ft 470 kts 189°
2026-04-11 13:55 17.50516 38.98084 37929 ft 470 kts 189°
2026-04-11 13:56 17.43949 38.98477 37941 ft 485 kts 171°
2026-04-11 13:56 17.40755 38.99734 37947 ft 497 kts 159°
2026-04-11 13:56 17.37809 39.01714 37929 ft 508 kts 147°
2026-04-11 13:57 17.32375 39.06483 37940 ft 511 kts 145°
2026-04-11 13:57 17.26954 39.11323 37940 ft 512 kts 146°
2026-04-11 13:58 17.21517 39.16080 37931 ft 513 kts 146°
2026-04-11 13:58 17.15999 39.20838 37944 ft 514 kts 146°
2026-04-11 13:58 17.13224 39.23222 38089 ft 516 kts 146°
2026-04-11 13:59 17.10446 39.25607 38461 ft 515 kts 146°
2026-04-11 13:59 17.07685 39.27980 38822 ft 512 kts 146°
2026-04-11 13:59 17.04919 39.30357 38954 ft 514 kts 146°
2026-04-11 14:00 16.99387 39.35108 38926 ft 513 kts 146°
2026-04-11 14:00 16.91190 39.42148 38939 ft 509 kts 146°
2026-04-11 14:01 16.85717 39.46841 38935 ft 509 kts 146°
2026-04-11 14:01 16.80236 39.51536 38936 ft 509 kts 146°
2026-04-11 14:02 16.74761 39.56223 38938 ft 509 kts 146°
2026-04-11 14:02 16.69270 39.60920 38934 ft 510 kts 146°
2026-04-11 14:03 16.63809 39.65589 38935 ft 511 kts 146°
2026-04-11 14:03 16.58306 39.70289 38933 ft 512 kts 146°
2026-04-11 14:04 16.52794 39.74994 38925 ft 512 kts 146°
2026-04-11 14:04 16.47273 39.79704 38930 ft 513 kts 146°
2026-04-11 14:05 16.41746 39.84415 38929 ft 513 kts 146°
2026-04-11 14:05 16.36252 39.89094 38926 ft 513 kts 146°
2026-04-11 14:06 16.30722 39.93801 38932 ft 513 kts 146°
2026-04-11 14:06 16.25187 39.98507 38928 ft 513 kts 146°
2026-04-11 14:07 16.19651 40.03212 38919 ft 513 kts 146°
2026-04-11 14:07 16.14128 40.07901 38921 ft 512 kts 146°
2026-04-11 14:08 16.08606 40.12587 38921 ft 512 kts 146°
2026-04-11 14:08 16.03105 40.17250 38924 ft 512 kts 146°
2026-04-11 14:09 15.97569 40.21940 38921 ft 513 kts 146°
2026-04-11 14:09 15.92066 40.26599 38920 ft 513 kts 146°
2026-04-11 14:10 15.86535 40.31278 38911 ft 513 kts 146°
2026-04-11 14:10 15.80988 40.35968 38924 ft 513 kts 146°
2026-04-11 14:11 15.75481 40.40620 38921 ft 513 kts 146°
2026-04-11 14:11 15.69924 40.45311 38915 ft 514 kts 146°
2026-04-11 14:12 15.64369 40.49996 38912 ft 514 kts 145°
2026-04-11 14:12 15.58852 40.54648 38921 ft 514 kts 145°
2026-04-11 14:13 15.53293 40.59330 38914 ft 514 kts 145°
2026-04-11 14:13 15.47734 40.64010 38913 ft 514 kts 145°
2026-04-11 14:14 15.42171 40.68689 38914 ft 514 kts 145°
2026-04-11 14:14 15.36621 40.73354 38915 ft 513 kts 145°
2026-04-11 14:15 15.31104 40.77988 38914 ft 513 kts 145°
2026-04-11 14:15 15.25556 40.82645 38916 ft 513 kts 145°
2026-04-11 14:16 15.20004 40.87302 38904 ft 513 kts 145°
2026-04-11 14:16 15.14486 40.91928 38910 ft 512 kts 145°
2026-04-11 14:17 15.08938 40.96576 38906 ft 512 kts 145°
2026-04-11 14:17 15.03391 41.01220 38907 ft 512 kts 145°
2026-04-11 14:18 14.97845 41.05853 38909 ft 512 kts 145°
2026-04-11 14:18 14.92320 41.10462 38910 ft 512 kts 145°
2026-04-11 14:19 14.86774 41.15086 38910 ft 511 kts 145°
2026-04-11 14:19 14.81241 41.19699 38908 ft 510 kts 145°
2026-04-11 14:20 14.75714 41.24304 38905 ft 509 kts 145°
2026-04-11 14:20 14.70197 41.28897 38906 ft 509 kts 145°
2026-04-11 14:21 14.64704 41.33467 38908 ft 508 kts 145°
2026-04-11 14:21 14.59193 41.38048 38911 ft 507 kts 145°
2026-04-11 14:22 14.53732 41.42586 38911 ft 506 kts 144°
2026-04-11 14:22 14.48240 41.47147 38908 ft 506 kts 144°
2026-04-11 14:23 14.43671 41.50938 38908 ft 505 kts 144°
2026-04-11 14:23 14.37306 41.56216 38909 ft 504 kts 144°
2026-04-11 14:24 14.32720 41.60017 38910 ft 504 kts 144°
2026-04-11 14:24 14.27292 41.64512 38907 ft 503 kts 144°
2026-04-11 14:25 14.21830 41.69033 38905 ft 502 kts 144°
2026-04-11 14:25 14.16382 41.73540 38905 ft 502 kts 144°
2026-04-11 14:26 14.10937 41.78042 38903 ft 501 kts 144°
2026-04-11 14:26 14.05530 41.82509 38910 ft 501 kts 144°
2026-04-11 14:27 14.00085 41.87004 38909 ft 501 kts 144°
2026-04-11 14:27 13.94628 41.91507 38907 ft 502 kts 144°
2026-04-11 14:28 13.89178 41.96001 38902 ft 502 kts 144°
2026-04-11 14:28 13.83753 42.00473 38910 ft 502 kts 144°
2026-04-11 14:29 13.78284 42.04978 38910 ft 502 kts 144°
2026-04-11 14:29 13.72821 42.09475 38906 ft 503 kts 144°
2026-04-11 14:30 13.67353 42.13974 38903 ft 503 kts 144°
2026-04-11 14:30 13.61920 42.18428 38904 ft 502 kts 144°
2026-04-11 14:31 13.56444 42.22882 38903 ft 501 kts 144°
2026-04-11 14:31 13.50973 42.27332 38896 ft 500 kts 144°
2026-04-11 14:32 13.45517 42.31772 38890 ft 499 kts 144°
2026-04-11 14:32 13.40102 42.36178 38893 ft 498 kts 144°
2026-04-11 14:33 13.34659 42.40604 38890 ft 498 kts 144°
2026-04-11 14:33 13.31932 42.42820 38487 ft 504 kts 143°
2026-04-11 14:33 13.29166 42.45065 37714 ft 507 kts 143°
2026-04-11 14:34 13.26400 42.47313 36995 ft 506 kts 143°
2026-04-11 14:34 13.23646 42.49550 36273 ft 505 kts 143°
2026-04-11 14:34 13.20899 42.51782 35658 ft 502 kts 143°
2026-04-11 14:34 13.18171 42.53996 35124 ft 498 kts 143°
2026-04-11 14:35 13.15462 42.56195 34574 ft 495 kts 143°
2026-04-11 14:35 13.12767 42.58380 34056 ft 492 kts 143°
2026-04-11 14:35 13.10074 42.60526 33486 ft 488 kts 146°
2026-04-11 14:35 13.07222 42.62391 32937 ft 482 kts 153°
2026-04-11 14:36 13.04281 42.63925 32429 ft 476 kts 158°
2026-04-11 14:36 13.01228 42.65190 31902 ft 471 kts 164°
2026-04-11 14:36 12.98118 42.66210 31408 ft 466 kts 165°
2026-04-11 14:36 12.95032 42.67195 30892 ft 463 kts 165°
2026-04-11 14:37 12.91958 42.68176 30379 ft 460 kts 165°
2026-04-11 14:37 12.88908 42.69158 29848 ft 458 kts 165°
2026-04-11 14:37 12.85883 42.70142 29264 ft 455 kts 165°
2026-04-11 14:37 12.82873 42.71128 28726 ft 451 kts 165°
2026-04-11 14:38 12.79895 42.72106 28205 ft 447 kts 164°
2026-04-11 14:38 12.76938 42.73079 27687 ft 444 kts 165°
2026-04-11 14:38 12.74043 42.74030 27188 ft 440 kts 164°
2026-04-11 14:38 12.71135 42.74985 26680 ft 437 kts 164°
2026-04-11 14:39 12.68237 42.75935 26184 ft 434 kts 164°
2026-04-11 14:39 12.65371 42.76875 25686 ft 431 kts 164°
2026-04-11 14:39 12.62525 42.77810 25175 ft 429 kts 165°
2026-04-11 14:39 12.59685 42.78748 24669 ft 427 kts 163°
2026-04-11 14:40 12.56977 42.79984 24178 ft 427 kts 153°
2026-04-11 14:40 12.54422 42.81529 23691 ft 426 kts 151°
2026-04-11 14:40 12.51945 42.83118 23113 ft 410 kts 149°
2026-04-11 14:40 12.49587 42.84638 22629 ft 404 kts 150°
2026-04-11 14:41 12.47205 42.86154 22154 ft 401 kts 150°
2026-04-11 14:41 12.44830 42.87639 21687 ft 399 kts 150°
2026-04-11 14:41 12.42462 42.89102 21218 ft 396 kts 150°
2026-04-11 14:41 12.40101 42.90548 20751 ft 394 kts 151°
2026-04-11 14:42 12.37752 42.91981 20290 ft 392 kts 150°
2026-04-11 14:42 12.35417 42.93402 19820 ft 383 kts 150°
2026-04-11 14:42 12.33176 42.94767 19380 ft 370 kts 150°
2026-04-11 14:43 12.28785 42.97440 18473 ft 355 kts 152°
2026-04-11 14:43 12.26697 42.98712 18047 ft 348 kts 151°
2026-04-11 14:43 12.24626 42.99971 17574 ft 350 kts 152°
2026-04-11 14:43 12.22523 43.01249 17142 ft 353 kts 151°
2026-04-11 14:44 12.20401 43.02538 16703 ft 355 kts 151°
2026-04-11 14:44 12.18285 43.03825 16369 ft 350 kts 150°
2026-04-11 14:44 12.16276 43.05050 16209 ft 320 kts 150°
2026-04-11 14:44 12.14439 43.06170 15980 ft 296 kts 150°
2026-04-11 14:45 12.12721 43.07214 15668 ft 278 kts 150°
2026-04-11 14:45 12.11107 43.08196 15170 ft 267 kts 150°
2026-04-11 14:45 12.09513 43.09164 14537 ft 264 kts 150°
2026-04-11 14:45 12.07926 43.10127 13966 ft 268 kts 149°
2026-04-11 14:46 12.06328 43.11098 13668 ft 266 kts 149°
2026-04-11 14:46 12.04766 43.12047 13396 ft 263 kts 149°
2026-04-11 14:46 12.03199 43.12999 13067 ft 262 kts 149°
2026-04-11 14:46 12.01633 43.13950 12730 ft 261 kts 149°
2026-04-11 14:47 12.00069 43.14899 12421 ft 260 kts 149°
2026-04-11 14:47 11.98476 43.15720 12040 ft 257 kts 165°
2026-04-11 14:47 11.96698 43.15735 11690 ft 254 kts 194°
2026-04-11 14:47 11.95113 43.15037 11772 ft 252 kts 211°
2026-04-11 14:48 11.93673 43.13946 11808 ft 261 kts 217°
2026-04-11 14:48 11.92290 43.12786 11786 ft 254 kts 217°
2026-04-11 14:48 11.90926 43.11640 11698 ft 260 kts 217°
2026-04-11 14:48 11.89395 43.10378 11099 ft 297 kts 217°
2026-04-11 14:49 11.87728 43.09015 10384 ft 317 kts 217°
2026-04-11 14:49 11.86031 43.07634 9518 ft 314 kts 217°
2026-04-11 14:49 11.82806 43.05009 8823 ft 270 kts 217°
2026-04-11 14:50 11.81393 43.03861 8773 ft 254 kts 217°
2026-04-11 14:50 11.79996 43.02731 8768 ft 259 kts 217°
2026-04-11 14:50 11.78578 43.01584 8667 ft 259 kts 216°
2026-04-11 14:50 11.77173 43.00445 8453 ft 255 kts 217°
2026-04-11 14:51 11.75833 42.99358 8266 ft 241 kts 216°
2026-04-11 14:51 11.74551 42.98318 8186 ft 231 kts 216°
2026-04-11 14:51 11.73258 42.97272 7904 ft 240 kts 216°
2026-04-11 14:51 11.71971 42.96230 7666 ft 237 kts 217°
2026-04-11 14:52 11.70667 42.95173 7339 ft 236 kts 217°
2026-04-11 14:52 11.69439 42.94177 7043 ft 220 kts 216°
2026-04-11 14:52 11.68290 42.93245 6848 ft 202 kts 217°
2026-04-11 14:52 11.67164 42.92334 6797 ft 210 kts 216°
2026-04-11 14:53 11.66024 42.91412 6680 ft 206 kts 216°
2026-04-11 14:53 11.64913 42.90521 6575 ft 198 kts 211°
2026-04-11 14:53 11.63650 42.90125 6466 ft 190 kts 177°
2026-04-11 14:53 11.62275 42.90148 6330 ft 205 kts 179°
2026-04-11 14:54 11.60825 42.90120 6035 ft 208 kts 179°
2026-04-11 14:54 11.59384 42.90092 5759 ft 206 kts 180°
2026-04-11 14:54 11.57981 42.90069 5503 ft 202 kts 178°
2026-04-11 14:54 11.56615 42.90159 5281 ft 189 kts 158°
2026-04-11 14:55 11.55615 42.90928 5138 ft 183 kts 124°
2026-04-11 14:55 11.55077 42.92126 4937 ft 190 kts 101°
2026-04-11 14:55 11.55025 42.93465 4715 ft 189 kts 91°
2026-04-11 14:55 11.55013 42.94756 4503 ft 176 kts 91°
2026-04-11 14:56 11.54998 42.95968 4242 ft 164 kts 90°
2026-04-11 14:56 11.54984 42.97125 4049 ft 158 kts 90°
2026-04-11 14:56 11.54971 42.98185 3819 ft 141 kts 91°
2026-04-11 14:56 11.54960 42.99141 3615 ft 133 kts 91°
2026-04-11 14:57 11.54947 43.00110 3448 ft 144 kts 90°
2026-04-11 14:57 11.54934 43.01116 3300 ft 139 kts 90°
2026-04-11 14:57 11.54921 43.02106 3272 ft 144 kts 90°
2026-04-11 14:57 11.54907 43.03189 2854 ft 155 kts 89°
2026-04-11 14:58 11.54892 43.04245 2518 ft 141 kts 89°
2026-04-11 14:58 11.54879 43.05205 2233 ft 133 kts 89°
2026-04-11 14:58 11.54866 43.06197 2063 ft 147 kts 88°
2026-04-11 14:58 11.54854 43.07248 1793 ft 146 kts 90°
2026-04-11 14:59 11.54839 43.08252 1572 ft 138 kts 87°
2026-04-11 14:59 11.54827 43.09231 1347 ft 140 kts 88°
2026-04-11 14:59 11.54811 43.10223 1114 ft 140 kts 86°
2026-04-11 14:59 11.54804 43.11198 840 ft 136 kts 88°
2026-04-11 15:00 11.54780 43.12168 593 ft 140 kts 87°
2026-04-11 15:00 11.54772 43.13144 383 ft 137 kts 88°
2026-04-11 15:00 11.54758 43.14100 182 ft 135 kts 89°
2026-04-11 15:00 11.54748 43.15061 54 ft 135 kts 89°
2026-04-11 15:01 11.54737 43.15896 37 ft 94 kts 91°
2026-04-11 15:01 11.54731 43.16331 32 ft 33 kts 92°
2026-04-11 15:01 11.54722 43.16456 30 ft 11 kts 106°
2026-04-11 15:01 11.54662 43.16506 30 ft 12 kts 162°
2026-04-11 15:02 11.54584 43.16496 29 ft 12 kts 221°
2026-04-11 15:02 11.54560 43.16416 32 ft 12 kts 266°
2026-04-11 15:02 11.54558 43.16329 33 ft 12 kts 270°
2026-04-11 15:02 11.54560 43.16243 34 ft 12 kts 271°
2026-04-11 15:03 11.54561 43.16157 35 ft 12 kts 271°
2026-04-11 15:03 11.54563 43.16068 35 ft 13 kts 272°
2026-04-11 15:03 11.54564 43.15977 36 ft 13 kts 271°
2026-04-11 15:03 11.54566 43.15882 37 ft 13 kts 269°
2026-04-11 15:04 11.54565 43.15787 38 ft 13 kts 270°
2026-04-11 15:04 11.54566 43.15692 39 ft 13 kts 271°
2026-04-11 15:04 11.54569 43.15597 40 ft 13 kts 271°
2026-04-11 15:04 11.54569 43.15498 41 ft 14 kts 270°
2026-04-11 15:05 11.54570 43.15400 42 ft 14 kts 270°
2026-04-11 15:05 11.54570 43.15301 43 ft 14 kts 271°
2026-04-11 15:05 11.54575 43.15202 44 ft 14 kts 278°
2026-04-11 15:05 11.54642 43.15144 45 ft 14 kts 359°
2026-04-11 15:06 11.54738 43.15146 46 ft 14 kts
2026-04-11 15:06 11.54843 43.15147 46 ft 15 kts
2026-04-11 15:06 11.54952 43.15146 45 ft 16 kts 353°
2026-04-11 15:06 11.55008 43.15064 46 ft 16 kts 273°
2026-04-11 15:07 11.55066 43.15005 46 ft 7 kts 355°
2026-04-11 15:07 11.55114 43.15004 46 ft 7 kts 359°
2026-04-11 15:07 11.55117 43.15004 46 ft 0 kts 359°